Regional Weather Roundup
Issued by NWS

Home | Current Version | Previous Version | Graphics & Text | Print | Product List | Glossary On
Versions: 1 2 3 4 5 6 7 8 9 10 11 12 13 14 15 16 17 18 19 20 21 22 23 24 25 26 27 28 29 30 31 32 33 34 35 36 37 38 39 40 41 42 43 44 45 46 47 48 49 50
000
ASUS43 KDMX 202101
RWRIA

WEATHER ROUNDUP FOR IOWA
NATIONAL WEATHER SERVICE DES MOINES IA
400 PM CDT FRI APR 20 2018

NOTE: "FAIR" INDICATES FEW OR NO CLOUDS BELOW 12,000 FEET WITH NO
SIGNIFICANT WEATHER AND/OR OBSTRUCTIONS TO VISIBILITY.

* - THESE STATIONS ARE NOT NWS STATIONS...THUS NOT UNDER NWS
QUALITY CONTROL.  THEY ALSO DO NOT REPORT WEATHER SUCH
AS PRECIPITATION OR FOG.

IAZ001>003-012>014-020>022-031>034-043>046-202200-
   NORTHWEST IOWA

CITY           SKY/WX    TMP DP  RH WIND       PRES   REMARKS
CARROLL *      CLOUDY    59  30  33 SE17      30.34F
CHEROKEE *     CLOUDY    47  39  73 E13       30.36F
DENISON *      CLOUDY    59  28  31 S12       30.33F
LE MARS *      CLOUDY    55  34  44 SE13      30.33F
ORANGE CITY *  CLOUDY    48  39  71 E8        30.35F
SHELDON *      CLOUDY    46  39  76 E12       30.35F
SIOUX CITY     CLOUDY    59  31  34 SE10G24   30.30F
SPENCER        CLOUDY    41  31  67 E12       30.39F
STORM LAKE *   MOSUNNY   45  39  81 NE10      30.35F
$$

IAZ055>058-069>071-079>083-090>094-202200-
   SOUTHWEST IOWA

CITY           SKY/WX    TMP DP  RH WIND       PRES   REMARKS
ATLANTIC *     CLOUDY    59  27  29 E13G21    30.31F
AUDUBON *      MOSUNNY   61  23  23 SE7G18    30.33F
CLARINDA *     SUNNY     63  27  25 S14G20    30.32F
COUNCIL BLFS * MOSUNNY   59  28  31 SE14G21   30.29F
CRESTON *      MOSUNNY   59  28  31 SE13G21   30.32F
HARLAN  *      CLOUDY    61  27  27 SE15      30.34F
LAMONI         CLOUDY    59  28  30 E9G23     30.32F
RED OAK *      CLOUDY    63  28  27 SE13G21   30.30F
SHENANDOAH *   SUNNY     63  28  27 SE10G22   30.30F
$$

IAZ047>049-059>061-072>074-084-202200-
   CENTRAL IOWA

CITY           SKY/WX    TMP DP  RH WIND       PRES   REMARKS
AMES           CLOUDY    57  29  34 SE8       30.37F
ANKENY *       CLOUDY    57  28  33 E13       30.37F
BOONE *        CLOUDY    57  28  33 SE12G17   30.36F
CHARITON *     MOSUNNY   59  27  29 E12G17    30.35F
DES MOINES     CLOUDY    59  27  29 SE9       30.36F
GRINNELL*      CLOUDY    58  25  28 SE8       30.40F
KNOXVILLE *    CLOUDY    59  25  27 SE9       30.35F
MARSHALLTOWN   CLOUDY    56  29  35 S7        30.37F
NEWTON *       PTSUNNY   57  27  30 SE10G18   30.38F
PELLA *        CLOUDY    58  23  25 SE10      30.39F
$$

IAZ004>006-015-016-023>025-035-036-202200-
   NORTH CENTRAL IOWA

CITY           SKY/WX    TMP DP  RH WIND       PRES   REMARKS
ALGONA *       CLOUDY    41  32  70 E8        30.41F
CLARION *      CLOUDY    48  39  71 NE10      30.40F
ESTHERVILLE    CLOUDY    36  30  79 E8        30.40F WCI  30
FORT DODGE *   CLOUDY    54  34  46 SE9       30.38F
MASON CITY     CLOUDY    43  33  68 NE8       30.43F
FOREST CITY *  FAIR      45  30  57 E6        30.42F
WEBSTER CITY * CLOUDY    55  30  38 SE8       30.36F
IOWA FALLS *   FAIR      56  30  37 SE8       30.39F
$$

IAZ007>011-017>019-026>030-037>042-050>054-066-202200-
   NORTHEAST IOWA

CITY           SKY/WX    TMP DP  RH WIND       PRES   REMARKS
CEDAR RAPIDS   FAIR      60  23  24 SE5       30.40F
CHARLES CITY * FAIR      50  30  46 NE6       30.43F
CLINTON *      FAIR      60  22  23 S5        30.44F
DECORAH *      FAIR      48  25  40 CALM      30.43F
DUBUQUE        FAIR      57  26  30 VRB6      30.43F
MONTICELLO *   FAIR      59  25  27 VRB6      30.42F
OELWEIN *      FAIR      55  30  38 VRB3      30.41F
WATERLOO       FAIR      55  28  35 MISG      30.39F
$$

IAZ064-065-067-068-078-202200-
   EAST CENTRAL IOWA

CITY           SKY/WX    TMP DP  RH WIND       PRES   REMARKS
DAVENPORT      FAIR      60  13  15 S10       30.44F
IOWA CITY      FAIR      60  20  21 SE7       30.42F
MT. PLEASANT * CLOUDY    59  16  18 S10       30.40F
MUSCATINE *    FAIR      61  16  17 S8        30.42F
QUAD CITIES    FAIR      62  15  16 SE8       30.41F
$$

IAZ062-063-075>077-085>089-095>099-202200-
   SOUTHEAST IOWA

CITY           SKY/WX    TMP DP  RH WIND       PRES   REMARKS
BURLINGTON     CLOUDY    60  18  19 SE12      30.40F
FAIRFIELD *    PTSUNNY   59  18  20 SE7G18    30.38F
FORT MADISON * PTSUNNY   61  21  21 SE8       30.40F
KEOKUK *       CLOUDY    59  21  23 SE10G18   30.39F
OSKALOOSA *    FAIR      59  22  24 SE8       30.39F
CENTERVILLE *    N/A     59  25  27 CALM      30.38F
OTTUMWA        CLOUDY    59  24  26 SE10      30.38F
WASHINGTON *   CLOUDY    61  19  20 SE13      30.41F
$$

ABBREVIATIONS USED IN REMARKS
   TC - TEMPERATURES IN CELSIUS
  WCI - WIND CHILL INDEX
   HX - HEAT INDEX
  VSB - VISIBILITY
$$





USA.gov is the U.S. government's official web portal to all federal, state and local government web resources and services.